Regional Weather Roundup
Issued by NWS Sterling, VA

Home | Current Version | Previous Version | Graphics & Text | Print | Product List | Glossary On
Versions: 1 2 3 4 5 6 7 8 9 10 11 12 13 14 15 16 17 18 19 20 21 22 23 24 25 26 27 28 29 30 31 32 33 34 35 36 37 38 39 40 41 42 43 44 45 46 47 48 49 50
000
ASUS41 KLWX 051010
RWRLWX

REGIONAL WEATHER ROUNDUP
NATIONAL WEATHER SERVICE BALTIMORE MD/WASHINGTON DC
600 AM EDT TUE MAY 05 2015

Note: "FAIR" indicates few or no clouds below 12,000 feet
with no significant weather and/or obstructions to visibility.
 TC=TEMPERATURE CELSIUS

 * =Non NWS site. Station does not report precipitation (e.g. rain,
    snow, etc.), thunder, or fog.

DCZ001-MDZ009-015-VAZ040>042-051-053>054-051100-
WASHINGTON METRO

CITY           SKY/WX    TMP DP  RH WIND       PRES   REMARKS
WASHINGTON NAT PTCLDY    65  54  67 S7        30.22R
DULLES         PTCLDY    61  53  75 S3        30.21S
ANDREWS AFB    CLEAR     63  53  69 SW9       30.21R
FT BELVOIR     CLEAR     56  54  90 CALM      30.22R
QUANTICO       CLEAR     64  52  64 CALM      30.23R
COLLEGE PARK*  CLEAR     61  54  77 CALM      30.20S
LEESBURG*      CLEAR     61  55  82 SW5       30.23R
MANASSAS*      CLEAR     55  54  94 S3        30.22R
GAITHERSBURG*  PTCLDY    57  52  82 CALM      30.25S

$$

MDZ006>007-011-014-051100-
BALTIMORE METRO

CITY           SKY/WX    TMP DP  RH WIND       PRES   REMARKS
BWI AIRPORT    PTCLDY    62  53  72 SW3       30.19R
MD SCIENCE CTR   N/A     67  53  61 MISG      30.20R
MARTIN STATE   PTCLDY    57  57 100 CALM      30.20S
ANNAPOLIS      CLEAR     65  51  60 CALM      30.20R
FORT MEADE*    CLEAR     55  52  88 CALM      30.23R

$$

MDZ012-015-019>023-051100-
MARYLAND EASTERN SHORE

CITY           SKY/WX    TMP DP  RH WIND       PRES   REMARKS
OCEAN CITY     CLEAR     65  52  62 W14       30.23F
SALISBURY      CLEAR     62  53  72 SW10      30.23S
BAY BRIDGE AP*   N/A    N/A N/A N/A S5        30.21R
CAMBRIDGE*     CLEAR     63  54  72 S3        30.22R
EASTON*        CLEAR     62  56  82 SW6       30.24S

$$

MDZ017>025-051100-
SOUTHERN MARYLAND

CITY           SKY/WX    TMP DP  RH WIND       PRES   REMARKS
PATUXENT RIVER PTCLDY    64  54  69 SW16      30.21S
ST INIGOES     CLEAR     64  55  72 SW10      30.22S
LEONARDTOWN*   CLEAR     63  52  67 SW8       30.24R

$$

MDZ003>005-051100-
NORTH CENTRAL MARYLAND

CITY           SKY/WX    TMP DP  RH WIND       PRES   REMARKS
FREDERICK*     CLOUDY    59  52  77 CALM      30.23R
HAGERSTOWN APT CLOUDY    64  52  64 CALM      30.21R
WESTMINSTER*   MOCLDY    63  54  72 W3        30.21S

$$

MDZ501>502-051100-
WESTERN MARYLAND

CITY           SKY/WX    TMP DP  RH WIND       PRES   REMARKS
OAKLAND*       CLOUDY    59  57  94 W3        30.30R
CUMBERLAND*    MOCLDY    63  54  72 CALM      30.26S

$$

VAZ025>031-051100-
SHENANDOAH VALLEY

CITY           SKY/WX    TMP DP  RH WIND       PRES   REMARKS
WINCHESTER*    MOCLDY    61  48  63 CALM      30.22S
FRONT ROYAL*   FAIR      59  52  77 CALM      30.23R
LURAY*         FAIR      54  54 100 CALM      30.24R
NEW MARKET*    FAIR      51  50  95 CALM      30.24S
STAUNTON*      CLEAR     51  48  91 CALM      30.27S
WAYNESBORO*    FAIR      54  50  86 CALM      30.26R

$$

WVZ021-048>050-054>055-051100-
EASTERN WEST VIRGINIA PANHANDLE

CITY           SKY/WX    TMP DP  RH WIND       PRES   REMARKS
MARTINSBURG    PTCLDY    59  50  72 S3        30.22R
PETERSBURG*    CLOUDY    56  52  84 CALM      30.26R

$$

VAZ036>039-050-051100-
CENTRAL FOOTHILLS

CITY           SKY/WX    TMP DP  RH WIND       PRES   REMARKS
CHARLOTTESVILL CLEAR     58  53  84 SW3       30.22S
CULPEPER*      NOT AVBL
ORANGE*        CLEAR     59  54  82 CALM      30.24R
GORDONSVILLE*  FAIR      55  53  92 CALM      30.22S
WARRENTON*     FAIR      57  55  91 CALM      30.22R

$$

VAZ055>057-051100-
NORTH AND CENTRAL PIEDMONT

CITY           SKY/WX    TMP DP  RH WIND       PRES   REMARKS
FREDERICKSBRG* CLEAR     65  55  70 S3        30.21S
STAFFORD*      CLEAR     62  51  67 CALM      30.26R

$$

NCZ024-NYZ072-PAZ021-071-VAZ022-071-051100-
OTHER REGIONAL OBSERVATIONS

CITY           SKY/WX    TMP DP  RH WIND       PRES   REMARKS
NEW YORK CITY  CLEAR     66  47  50 SW5       30.18S
PHILADELPHIA   PTCLDY    62  53  72 SW3       30.19R
PITTSBURGH     CLOUDY    60  57  89 CALM      30.23R
ROANOKE        CLEAR     59  52  77 CALM      30.29R
RICHMOND       PTCLDY    61  54  77 S9        30.26S
RALEIGH        PTCLDY    57  53  86 SW7       30.33R

$$

ANZ530>537-051100-
MARINE OBSERVATIONS

STATION/POSITION TIME  TEMP    WIND        PRES
                       AIR SEA DIR/SP/G
                 (UTC) (F)     (DEG/KT/KT) (MB)
THOMAS PT LIGHT  1000   66 58  220/  9/ 10 1023.5R
BALT KEY BRIDGE  0900   68     250/  7/  8 1021.8F
COVE POINT       0900   66     260/ 19/ 24 1023.0F
LEWISETTA        0900   65 64              1023.2F
SOLOMONS ISLAND  0900      60                N/A
PINEY POINT      0900          240/  4/  6   N/A

$$




USA.gov is the U.S. government's official web portal to all federal, state and local government web resources and services.